When you browse on this site, cookies collect data to enhance your experience and personalize the content and advertising you see.
Visit our Privacy Policy to learn more. By continuing to use the site, you agree to this use of cookies and data.
  • In Austria
  • List of Countries
  • For 7 days
  • Water Temperature
  • Weather Map
  • News
  • Weather Widgets
  • user-avatar
    Login

    Hourly Weather Banjul

    Today, 28 January, Tuesday

    Time Temperature Precipitation Wind Pressure Humidity
    00:00 +26°C° 0 mm 5 mps 758 mmHg 25%
    01:00 +26°C° 0 mm 4 mps 758 mmHg 25%
    02:00 +25°C° 0 mm 4 mps 757 mmHg 25%
    03:00 +25°C° 0 mm 4 mps 757 mmHg 23%
    04:00 +23°C° 0 mm 4 mps 757 mmHg 22%
    05:00 +23°C° 0 mm 4 mps 757 mmHg 23%
    06:00 +25°C° 0 mm 4 mps 758 mmHg 21%
    07:00 +26°C° 0 mm 4 mps 758 mmHg 19%
    08:00 +27°C° 0 mm 3 mps 758 mmHg 16%
    09:00 +30°C° 0 mm 3 mps 758 mmHg 15%
    10:00 +32°C° 0 mm 2 mps 758 mmHg 14%
    11:00 +36°C° 0 mm 2 mps 758 mmHg 12%
    12:00 +37°C° 0 mm 2 mps 758 mmHg 12%
    13:00 +39°C° 0 mm 3 mps 757 mmHg 11%
    14:00 +40°C° 0 mm 3 mps 756 mmHg 11%
    15:00 +38°C° 0 mm 4 mps 756 mmHg 13%
    16:00 +37°C° 0 mm 4 mps 756 mmHg 16%
    17:00 +35°C° 0 mm 5 mps 756 mmHg 18%
    18:00 +32°C° 0 mm 5 mps 756 mmHg 26%
    19:00 +28°C° 0 mm 4 mps 757 mmHg 34%
    20:00 +25°C° 0 mm 4 mps 758 mmHg 42%
    21:00 +25°C° 0 mm 3 mps 758 mmHg 45%
    22:00 +25°C° 0 mm 3 mps 758 mmHg 48%
    23:00 +24°C° 0 mm 3 mps 759 mmHg 51%

    Tomorrow, 29 January, Wednesday

    Time Temperature Precipitation Wind Pressure Humidity
    00:00 +24°C° 0 mm 3 mps 758 mmHg 51%
    01:00 +23°C° 0 mm 4 mps 758 mmHg 51%
    02:00 +23°C° 0 mm 4 mps 758 mmHg 50%
    03:00 +22°C° 0 mm 3 mps 758 mmHg 52%
    04:00 +22°C° 0 mm 3 mps 758 mmHg 55%
    05:00 +21°C° 0 mm 2 mps 758 mmHg 57%
    06:00 +23°C° 0 mm 2 mps 758 mmHg 52%
    07:00 +24°C° 0 mm 2 mps 758 mmHg 47%
    08:00 +26°C° 0 mm 2 mps 759 mmHg 42%
    09:00 +29°C° 0 mm 1 mps 759 mmHg 34%
    10:00 +32°C° 0 mm 1 mps 759 mmHg 26%
    11:00 +35°C° 0 mm 1 mps 758 mmHg 18%
    12:00 +37°C° 0 mm 2 mps 758 mmHg 16%
    13:00 +38°C° 0 mm 3 mps 757 mmHg 14%
    14:00 +40°C° 0 mm 4 mps 756 mmHg 12%
    15:00 +37°C° 0 mm 4 mps 756 mmHg 18%
    16:00 +35°C° 0 mm 4 mps 756 mmHg 23%
    17:00 +33°C° 0 mm 5 mps 756 mmHg 28%
    18:00 +30°C° 0 mm 4 mps 757 mmHg 40%
    19:00 +27°C° 0 mm 4 mps 758 mmHg 52%
    20:00 +23°C° 0 mm 4 mps 758 mmHg 63%
    21:00 +24°C° 0 mm 3 mps 758 mmHg 64%
    22:00 +24°C° 0 mm 3 mps 759 mmHg 66%
    23:00 +23°C° 0 mm 2 mps 759 mmHg 67%

    Day after tomorrow, 30 January, Thursday

    Time Temperature Precipitation Wind Pressure Humidity
    00:00 +23°C° 0 mm 2 mps 759 mmHg 65%
    01:00 +23°C° 0 mm 2 mps 758 mmHg 62%
    02:00 +23°C° 0 mm 2 mps 758 mmHg 60%
    03:00 +23°C° 0 mm 2 mps 758 mmHg 59%
    04:00 +23°C° 0 mm 1 mps 758 mmHg 58%
    05:00 +22°C° 0 mm 1 mps 758 mmHg 57%
    06:00 +24°C° 0 mm 2 mps 759 mmHg 50%
    07:00 +25°C° 0 mm 2 mps 759 mmHg 42%
    08:00 +26°C° 0 mm 3 mps 760 mmHg 35%
    09:00 +29°C° 0 mm 3 mps 759 mmHg 27%
    10:00 +33°C° 0 mm 4 mps 759 mmHg 19%
    11:00 +36°C° 0 mm 4 mps 759 mmHg 11%
    12:00 +38°C° 0 mm 4 mps 758 mmHg 10%
    13:00 +41°C° 0 mm 4 mps 758 mmHg 9%
    14:00 +42°C° 0 mm 3 mps 757 mmHg 8%
    15:00 +42°C° 0 mm 3 mps 757 mmHg 8%
    16:00 +42°C° 0 mm 3 mps 757 mmHg 8%
    17:00 +40°C° 0 mm 3 mps 756 mmHg 8%
    18:00 +36°C° 0 mm 3 mps 757 mmHg 14%
    19:00 +33°C° 0 mm 3 mps 758 mmHg 20%
    20:00 +28°C° 0 mm 3 mps 758 mmHg 26%
    21:00 +27°C° 0 mm 3 mps 758 mmHg 29%
    22:00 +26°C° 0 mm 3 mps 759 mmHg 33%
    23:00 +25°C° 0 mm 2 mps 759 mmHg 37%

    31 January, Friday

    Time Temperature Precipitation Wind Pressure Humidity
    00:00 +25°C° 0 mm 2 mps 758 mmHg 34%
    01:00 +25°C° 0 mm 2 mps 758 mmHg 31%
    02:00 +25°C° 0 mm 2 mps 758 mmHg 28%
    03:00 +25°C° 0 mm 3 mps 758 mmHg 26%
    04:00 +25°C° 0 mm 4 mps 758 mmHg 23%
    05:00 +23°C° 0 mm 5 mps 758 mmHg 21%
    06:00 +26°C° 0 mm 6 mps 758 mmHg 20%
    07:00 +27°C° 0 mm 6 mps 759 mmHg 18%
    08:00 +29°C° 0 mm 7 mps 759 mmHg 17%
    09:00 +33°C° 0 mm 8 mps 759 mmHg 15%
    10:00 +35°C° 0 mm 8 mps 759 mmHg 13%
    11:00 +39°C° 0 mm 8 mps 759 mmHg 11%
    12:00 +41°C° 0 mm 7 mps 758 mmHg 10%
    13:00 +43°C° 0 mm 7 mps 757 mmHg 9%
    14:00 +44°C° 0 mm 6 mps 756 mmHg 9%
    15:00 +44°C° 0 mm 6 mps 756 mmHg 9%
    16:00 +42°C° 0 mm 5 mps 756 mmHg 9%
    17:00 +42°C° 0 mm 5 mps 755 mmHg 9%
    18:00 +39°C° 0 mm 5 mps 756 mmHg 12%
    19:00 +35°C° 0 mm 5 mps 757 mmHg 14%
    20:00 +32°C° 0 mm 5 mps 757 mmHg 16%
    21:00 +30°C° 0 mm 4 mps 757 mmHg 20%
    22:00 +28°C° 0 mm 4 mps 758 mmHg 25%
    23:00 +27°C° 0 mm 3 mps 758 mmHg 29%

    1 February, Saturday

    Time Temperature Precipitation Wind Pressure Humidity
    00:00 +26°C° 0 mm 3 mps 758 mmHg 31%
    01:00 +25°C° 0 mm 3 mps 758 mmHg 33%
    02:00 +24°C° 0 mm 2 mps 757 mmHg 35%
    03:00 +24°C° 0 mm 2 mps 758 mmHg 34%
    04:00 +24°C° 0 mm 3 mps 758 mmHg 33%
    05:00 +22°C° 0 mm 3 mps 758 mmHg 32%
    06:00 +24°C° 0 mm 3 mps 758 mmHg 27%
    07:00 +26°C° 0 mm 3 mps 759 mmHg 23%
    08:00 +27°C° 0 mm 4 mps 759 mmHg 18%
    09:00 +30°C° 0 mm 4 mps 759 mmHg 16%
    10:00 +34°C° 0 mm 4 mps 759 mmHg 13%
    11:00 +39°C° 0 mm 5 mps 759 mmHg 11%
    12:00 +40°C° 0 mm 4 mps 758 mmHg 11%
    13:00 +40°C° 0 mm 3 mps 757 mmHg 11%
    14:00 +41°C° 0 mm 2 mps 756 mmHg 11%
    15:00 +40°C° 0 mm 4 mps 756 mmHg 15%
    16:00 +37°C° 0 mm 5 mps 756 mmHg 20%
    17:00 +35°C° 0 mm 7 mps 756 mmHg 25%
    18:00 +32°C° 0 mm 6 mps 757 mmHg 39%
    19:00 +28°C° 0 mm 6 mps 757 mmHg 53%
    20:00 +25°C° 0 mm 5 mps 758 mmHg 67%
    21:00 +23°C° 0 mm 5 mps 758 mmHg 66%
    22:00 +23°C° 0 mm 5 mps 759 mmHg 64%
    23:00 +23°C° 0 mm 5 mps 759 mmHg 62%

    2 February, Sunday

    Time Temperature Precipitation Wind Pressure Humidity
    00:00 +23°C° 0 mm 5 mps 759 mmHg 60%
    01:00 +23°C° 0 mm 5 mps 758 mmHg 58%
    02:00 +22°C° 0 mm 4 mps 758 mmHg 56%
    03:00 +22°C° 0 mm 4 mps 758 mmHg 58%
    04:00 +21°C° 0 mm 3 mps 758 mmHg 60%
    05:00 +21°C° 0 mm 3 mps 758 mmHg 62%
    06:00 +23°C° 0 mm 2 mps 758 mmHg 57%
    07:00 +24°C° 0 mm 2 mps 758 mmHg 53%
    08:00 +25°C° 0 mm 1 mps 759 mmHg 48%
    09:00 +28°C° 0 mm 1 mps 759 mmHg 40%
    10:00 +31°C° 0 mm 1 mps 759 mmHg 32%
    11:00 +35°C° 0 mm 2 mps 759 mmHg 23%
    12:00 +36°C° 0 mm 3 mps 758 mmHg 23%
    13:00 +37°C° 0 mm 4 mps 757 mmHg 22%
    14:00 +37°C° 0 mm 5 mps 757 mmHg 21%
    15:00 +35°C° 0 mm 5 mps 757 mmHg 26%
    16:00 +33°C° 0 mm 6 mps 757 mmHg 31%
    17:00 +30°C° 0 mm 6 mps 757 mmHg 37%
    18:00 +28°C° 0 mm 6 mps 757 mmHg 46%
    19:00 +25°C° 0 mm 5 mps 758 mmHg 55%
    20:00 +22°C° 0 mm 4 mps 759 mmHg 64%
    21:00 +22°C° 0 mm 3 mps 759 mmHg 64%
    22:00 +22°C° 0 mm 3 mps 759 mmHg 65%
    23:00 +21°C° 0 mm 2 mps 759 mmHg 66%
    Show more